Wind_Speed
21 21 20 20 20 19 19 17 17 16 15 14 14 14 14 14 15 15 15 16 15 14 14 16 16 16 17 17 17 17 17 18 17 16 17 16 16 15 15 15 15 15 14 14
22 22 21 22 21 20 20 19 18 17 16 15 15 15 15 15 15 15 15 15 15 15 15 15 17 17 18 18 18 18 18 18 18 18 17 17 16 15 16 16 15 15 15 15
23 22 23 23 21 20 20 20 19 18 16 16 16 16 16 15 15 15 15 15 16 15 15 15 15 16 17 18 19 20 19 19 18 17 17 17 17 16 16 16 16 16 15 16
23 24 25 23 22 22 21 20 20 19 18 18 18 17 17 17 17 17 16 16 16 16 16 15 15 16 17 18 18 18 18 19 19 18 18 18 17 17 17 17 17 16 16 16
23 25 25 24 22 22 23 22 21 20 19 19 19 18 18 18 17 17 17 17 16 16 16 16 16 16 17 18 18 18 18 19 19 19 19 19 19 19 19 18 17 17 17 17
25 26 26 24 23 22 23 22 21 21 20 20 20 20 19 19 19 18 17 17 17 16 16 16 16 16 17 18 18 18 19 19 19 20 20 20 20 20 19 19 18 18 17 17
26 26 25 24 24 23 24 23 22 22 21 21 22 21 20 20 20 19 18 18 18 17 17 16 16 17 17 16 16 17 18 18 19 19 19 19 19 19 19 19 19 18 18 18
26 26 24 24 24 24 23 23 23 23 22 22 23 22 21 21 21 20 19 19 19 18 18 17 17 17 18 17 17 17 17 17 18 19 19 19 19 19 18 18 19 19 19 20
26 25 24 24 23 23 23 23 23 23 23 23 23 23 22 22 22 22 21 20 20 19 19 19 18 18 18 19 19 19 18 18 18 18 19 19 19 18 18 18 18 19 19 19
27 26 25 24 24 23 22 22 22 23 23 23 23 23 23 23 22 22 21 21 20 20 20 20 20 19 19 19 19 20 20 19 18 18 19 18 18 18 18 18 19 19 19 19
27 26 26 25 25 24 23 23 23 23 23 23 22 22 22 23 22 22 21 21 21 21 21 21 20 21 21 20 20 20 20 20 19 19 19 19 18 18 18 18 18 19 19 19
27 27 27 26 26 25 24 24 24 23 23 24 23 23 22 22 21 21 21 22 22 21 22 21 21 20 21 21 21 21 20 20 20 19 19 19 19 19 19 19 20 20 20 20
27 27 28 27 26 26 25 25 25 25 25 24 24 24 23 23 22 22 21 21 22 22 22 22 21 21 20 21 21 21 21 21 21 21 20 21 21 20 20 20 21 21 21 21
27 27 27 27 26 26 26 26 26 26 26 25 25 24 24 23 23 22 22 21 21 22 22 22 22 21 21 21 21 21 22 22 22 22 22 22 21 21 21 21 21 22 22 23
28 27 27 27 26 26 26 26 27 27 26 26 26 25 25 24 24 23 23 22 21 21 21 21 21 21 21 21 22 22 22 23 23 23 23 23 23 23 23 23 23 23 24 24
27 27 27 27 27 27 26 26 26 26 26 26 26 26 26 25 24 24 24 23 23 22 22 22 22 22 23 23 22 22 22 23 24 24 24 24 24 24 25 25 24 25 25 25
26 26 27 27 27 26 26 25 25 25 26 26 26 26 26 25 24 24 24 24 24 24 24 23 23 23 23 23 23 23 23 24 25 25 24 24 24 25 26 26 26 27 27 27
26 26 26 27 27 26 27 26 26 25 25 25 26 26 25 24 24 24 23 24 24 24 24 24 24 24 24 23 23 24 24 24 25 25 25 25 25 26 27 27 28 28 28 28
26 26 26 26 25 25 25 26 25 25 26 26 26 26 25 25 24 24 23 23 23 23 24 24 25 25 25 25 25 25 26 25 25 26 27 26 26 27 28 29 29 29 28 29
26 26 26 25 25 25 25 25 25 26 26 26 25 25 25 25 25 25 24 23 23 23 24 25 25 25 25 26 26 27 27 26 26 27 27 28 28 28 28 28 29 29 29 29
25 26 25 25 25 25 25 25 25 25 26 25 25 25 25 25 25 25 25 24 23 24 24 25 26 26 26 26 27 27 28 27 27 27 27 27 28 28 29 29 29 30 30 31
25 25 25 25 25 25 25 25 25 25 25 25 25 25 26 26 26 26 26 25 25 25 25 25 26 26 26 27 27 28 28 29 29 29 29 29 29 29 29 30 30 31 32 32
25 25 25 25 24 24 24 25 25 25 25 24 25 25 25 25 25 26 26 25 25 26 26 26 26 26 26 26 27 28 28 29 29 30 30 30 30 30 31 31 31 32 33 33
25 24 25 24 25 24 24 24 24 25 25 25 25 25 25 25 25 26 26 26 26 27 27 27 27 27 27 27 28 28 28 29 30 30 31 32 32 32 33 33 33 33 34 34
25 25 25 25 25 25 24 24 24 25 25 25 26 26 26 26 26 26 26 26 27 27 27 28 28 28 28 29 29 29 29 30 31 32 32 33 33 34 34 35 35 35 36 36
25 25 25 25 25 25 25 24 24 25 25 25 26 26 26 26 26 27 26 27 28 28 28 28 28 29 29 29 30 30 31 31 32 32 33 34 34 35 35 36 36 36 36 37
26 26 26 27 26 26 25 25 25 25 25 25 26 26 26 26 27 27 27 27 27 28 28 28 29 29 29 30 30 30 31 32 32 33 33 34 35 35 36 36 36 36 36 37
Wind_Direction
240 240 243 243 243 244 244 246 247 246 247 249 252 252 252 252 254 253 253 256 259 259 255 253 250 246 244 244 243 244 246 248 246 246 246 246 248 251 255 257 260 262 262 264
241 241 244 244 244 244 244 244 246 247 247 248 251 252 251 252 253 253 254 256 259 260 260 256 251 247 244 245 246 246 248 248 246 245 246 247 250 252 255 258 261 265 264 265
241 241 243 245 244 246 246 247 249 248 248 248 251 251 251 252 254 255 255 256 259 259 260 256 252 249 248 249 249 249 248 245 244 245 247 248 251 253 256 258 261 265 266 266
243 243 244 245 244 244 246 247 248 248 247 249 251 253 252 252 252 254 255 257 257 257 259 257 253 251 249 249 249 249 248 246 245 245 247 250 251 253 256 259 262 265 266 267
242 245 246 245 244 244 245 247 249 249 247 249 251 252 253 253 253 255 255 256 255 256 257 256 254 252 249 247 246 247 247 246 246 246 247 250 252 255 257 259 261 265 268 267
243 245 247 247 246 245 246 247 248 249 248 248 251 253 253 254 254 255 255 255 254 254 255 257 254 252 250 245 244 245 246 247 248 247 250 252 255 259 260 259 259 264 268 268
243 245 247 247 247 245 246 247 247 248 250 250 252 253 253 253 256 257 257 256 255 255 256 256 256 253 250 248 246 245 245 246 248 249 252 254 256 258 259 259 259 262 265 268
243 244 245 245 245 244 244 245 247 249 250 251 251 252 252 253 255 257 258 257 255 254 255 255 257 254 252 251 250 249 248 247 249 250 251 253 254 256 257 256 259 263 265 267
243 244 244 243 244 244 245 246 247 248 248 249 251 251 251 252 254 256 257 257 254 254 254 255 257 255 255 252 252 251 250 251 253 253 252 254 255 255 255 256 260 263 266 269
243 242 241 241 242 243 245 246 247 248 249 249 249 250 250 252 254 254 255 255 253 253 253 254 255 255 254 253 252 250 249 251 252 252 252 253 255 256 258 260 263 267 269 272
242 241 241 241 242 243 242 244 247 248 249 249 250 251 252 253 253 254 254 253 252 253 253 254 255 254 252 252 252 250 249 249 250 249 250 252 254 257 259 262 265 268 272 274
243 242 241 240 242 243 243 245 247 249 249 250 250 251 252 251 251 252 253 253 252 252 253 253 253 253 252 250 250 249 249 250 251 251 251 252 255 257 260 262 264 269 273 276
241 240 240 240 241 243 244 246 247 250 251 250 250 251 252 251 252 253 253 253 253 252 252 252 252 253 252 251 250 249 249 249 251 252 253 255 255 257 260 263 265 268 272 276
239 239 239 239 241 243 245 247 248 250 251 251 251 252 252 251 251 251 252 253 254 252 251 250 250 252 252 252 250 250 250 250 251 253 256 258 257 258 261 265 268 270 273 277
238 239 240 240 242 244 245 247 248 249 250 250 251 251 251 252 250 250 251 251 253 253 251 250 250 252 253 252 251 251 251 251 253 254 256 258 257 259 261 264 267 271 274 276
238 240 241 241 242 244 246 247 248 248 248 249 250 250 251 252 252 250 249 249 251 252 251 250 251 252 252 253 254 253 253 255 256 256 257 258 259 260 263 265 269 272 274 276
237 239 240 241 243 245 246 247 247 247 247 247 248 249 249 250 250 249 250 249 249 251 252 252 252 252 252 254 255 255 255 256 257 259 260 261 261 262 264 266 269 272 274 275
236 239 241 243 244 246 247 247 247 247 246 245 246 247 249 250 250 249 249 247 248 250 251 253 253 252 252 253 254 256 256 258 259 260 262 263 264 266 267 267 269 272 275 275
235 239 241 242 244 247 247 246 246 245 245 245 245 247 249 249 249 248 248 248 249 251 252 253 253 253 253 254 255 257 258 259 261 262 262 264 265 267 268 268 270 273 275 277
234 237 239 241 244 246 246 246 244 244 244 244 244 246 246 247 248 248 249 250 251 251 252 252 253 254 255 256 256 257 259 259 261 263 264 263 265 266 268 270 272 273 275 277
236 237 239 240 243 245 246 244 243 243 242 242 243 244 245 247 248 248 249 250 250 250 252 254 254 255 255 256 255 256 258 260 262 263 263 264 265 267 268 271 273 275 277 278
237 238 239 239 241 243 244 243 242 241 242 243 245 246 247 248 248 249 250 251 251 252 254 256 256 256 256 255 255 256 258 260 262 263 263 265 267 268 269 272 274 276 278 280
237 238 237 237 239 241 242 241 240 242 243 244 245 246 248 249 249 250 250 251 253 255 255 256 257 257 257 257 258 259 261 261 262 263 265 266 268 270 272 273 275 278 279 280
236 236 235 236 238 240 241 240 240 242 244 245 247 249 250 251 251 252 253 253 254 257 257 256 257 258 259 259 261 262 264 264 264 265 266 267 268 270 272 274 276 278 280 281
237 236 237 239 240 240 241 241 242 244 245 246 248 249 251 252 254 255 255 255 256 258 259 258 258 259 260 261 263 264 265 265 266 267 267 268 270 272 273 274 276 279 280 281
238 238 239 241 243 244 244 244 244 244 246 248 249 250 251 253 254 254 254 255 257 259 260 260 260 261 262 263 264 265 266 267 268 268 269 270 272 273 274 275 277 278 280 282
239 240 242 241 242 245 245 244 245 245 247 249 249 250 252 254 255 255 255 256 258 259 261 261 261 262 263 265 266 267 268 269 269 270 271 272 273 274 275 276 278 279 280 282
Height
5807 5809 5811 5812 5814 5816 5817 5819 5821 5823 5824 5826 5826 5826 5826 5827 5827 5828 5829 5829 5830 5831 5831 5832 5833 5834 5835 5836 5837 5839 5840 5841 5842 5843 5844 5845 5846 5847 5847 5848 5848 5848 5848 5849
5801 5804 5805 5807 5809 5811 5812 5814 5816 5818 5820 5821 5821 5821 5822 5823 5823 5824 5825 5825 5826 5827 5827 5828 5828 5829 5830 5831 5833 5834 5835 5836 5837 5839 5840 5841 5842 5843 5843 5844 5844 5844 5844 5844
5796 5798 5799 5801 5805 5806 5808 5809 5811 5813 5816 5816 5816 5817 5818 5818 5819 5819 5820 5821 5821 5822 5822 5823 5824 5825 5826 5827 5828 5829 5830 5832 5833 5834 5835 5836 5837 5838 5839 5839 5840 5840 5840 5840
5789 5792 5793 5799 5799 5801 5802 5804 5806 5807 5809 5810 5811 5812 5813 5813 5814 5815 5816 5816 5817 5817 5818 5818 5819 5820 5821 5822 5823 5824 5825 5827 5828 5829 5831 5832 5832 5833 5834 5835 5835 5835 5835 5835
5783 5785 5787 5791 5793 5795 5797 5798 5800 5801 5803 5804 5806 5807 5808 5808 5809 5810 5811 5811 5812 5812 5813 5813 5814 5815 5816 5817 5818 5819 5820 5822 5823 5824 5826 5827 5827 5828 5829 5830 5830 5831 5831 5830
5777 5778 5781 5786 5787 5788 5791 5792 5794 5795 5797 5798 5800 5801 5803 5803 5804 5805 5805 5806 5807 5808 5808 5809 5809 5810 5811 5812 5813 5814 5815 5817 5818 5819 5821 5821 5822 5823 5824 5824 5825 5826 5826 5826
5770 5772 5775 5778 5780 5782 5785 5787 5788 5789 5790 5792 5794 5796 5797 5798 5798 5799 5800 5801 5802 5803 5804 5804 5805 5805 5806 5807 5808 5809 5810 5812 5813 5814 5815 5816 5817 5818 5819 5819 5820 5821 5821 5821
5763 5765 5770 5771 5773 5776 5778 5779 5781 5782 5784 5785 5787 5789 5790 5791 5792 5794 5795 5796 5797 5797 5798 5799 5800 5800 5801 5802 5803 5804 5805 5806 5808 5809 5810 5811 5812 5813 5813 5814 5814 5815 5815 5815
5757 5761 5762 5764 5766 5768 5770 5772 5774 5775 5777 5779 5780 5782 5784 5785 5786 5787 5788 5790 5791 5791 5793 5793 5794 5795 5796 5797 5798 5799 5800 5801 5802 5803 5804 5805 5806 5807 5808 5808 5809 5809 5809 5809
5749 5752 5754 5757 5759 5761 5763 5765 5767 5769 5771 5772 5774 5775 5777 5778 5779 5781 5782 5783 5784 5785 5786 5787 5788 5789 5790 5791 5792 5794 5795 5796 5797 5798 5799 5800 5801 5802 5802 5803 5803 5804 5804 5803
5741 5744 5747 5750 5752 5754 5756 5758 5760 5762 5764 5766 5767 5769 5770 5771 5773 5774 5775 5776 5778 5779 5780 5781 5782 5783 5784 5785 5786 5788 5789 5790 5791 5792 5793 5794 5795 5796 5797 5798 5798 5798 5798 5797
5734 5737 5739 5742 5744 5747 5749 5751 5753 5755 5757 5759 5760 5762 5763 5764 5766 5767 5768 5770 5771 5772 5773 5775 5776 5777 5778 5779 5780 5782 5783 5784 5786 5787 5788 5789 5790 5790 5791 5792 5792 5792 5792 5791
5725 5728 5731 5734 5736 5739 5741 5744 5746 5748 5750 5751 5753 5754 5756 5757 5759 5760 5762 5763 5764 5766 5767 5768 5769 5771 5772 5773 5774 5776 5777 5778 5780 5781 5782 5783 5784 5784 5785 5785 5785 5785 5785 5785
5716 5719 5722 5726 5729 5731 5734 5736 5738 5740 5742 5744 5745 5747 5748 5750 5752 5753 5755 5756 5757 5759 5760 5761 5763 5764 5765 5767 5768 5769 5771 5772 5773 5775 5776 5776 5777 5778 5778 5779 5779 5778 5778 5778
5708 5711 5715 5718 5721 5723 5725 5728 5730 5732 5734 5736 5738 5739 5741 5742 5744 5746 5748 5749 5750 5752 5753 5755 5756 5757 5759 5760 5761 5763 5764 5765 5767 5768 5769 5769 5770 5770 5771 5771 5772 5771 5771 5771
5701 5703 5706 5709 5713 5715 5717 5720 5722 5724 5725 5727 5729 5731 5733 5734 5736 5738 5740 5742 5743 5745 5746 5748 5749 5750 5752 5753 5754 5756 5757 5758 5759 5760 5761 5762 5762 5763 5764 5764 5764 5764 5764 5763
5692 5695 5698 5701 5704 5707 5709 5711 5713 5715 5717 5719 5721 5723 5725 5727 5729 5731 5732 5734 5736 5737 5739 5741 5742 5743 5744 5746 5747 5749 5750 5751 5752 5753 5753 5754 5755 5755 5756 5756 5756 5756 5756 5755
5683 5686 5689 5692 5695 5698 5701 5703 5705 5707 5709 5711 5713 5715 5717 5719 5721 5723 5724 5726 5728 5730 5731 5733 5734 5735 5737 5738 5740 5741 5742 5743 5744 5745 5746 5746 5747 5747 5747 5748 5748 5747 5747 5746
5676 5679 5681 5684 5686 5689 5692 5694 5696 5698 5701 5703 5705 5707 5709 5711 5713 5715 5717 5718 5720 5722 5724 5725 5726 5727 5729 5730 5732 5733 5734 5735 5736 5737 5737 5738 5738 5739 5739 5739 5739 5738 5738 5737
5668 5671 5673 5676 5678 5681 5683 5686 5688 5690 5692 5694 5697 5699 5701 5704 5705 5707 5709 5711 5712 5714 5715 5716 5718 5719 5721 5722 5723 5725 5726 5727 5728 5728 5729 5729 5730 5730 5730 5730 5730 5729 5729 5728
5660 5663 5665 5668 5670 5673 5675 5677 5679 5682 5684 5686 5689 5691 5694 5696 5697 5699 5701 5703 5705 5706 5707 5708 5710 5711 5712 5713 5715 5716 5717 5718 5719 5719 5720 5720 5721 5721 5721 5721 5720 5720 5719 5718
5653 5655 5658 5660 5662 5665 5667 5669 5671 5674 5676 5679 5681 5683 5685 5687 5689 5691 5693 5695 5696 5697 5699 5700 5701 5703 5704 5705 5706 5707 5708 5709 5710 5710 5711 5711 5711 5711 5712 5711 5711 5710 5709 5708
5645 5648 5650 5653 5655 5657 5659 5661 5664 5666 5668 5671 5673 5675 5677 5679 5681 5683 5685 5687 5688 5689 5690 5692 5693 5694 5695 5696 5697 5698 5699 5699 5700 5701 5701 5702 5702 5702 5702 5701 5700 5700 5698 5697
5638 5641 5643 5646 5648 5650 5652 5654 5656 5658 5661 5663 5665 5667 5668 5670 5672 5674 5676 5677 5678 5680 5681 5683 5684 5685 5685 5686 5687 5688 5689 5690 5690 5690 5691 5691 5691 5691 5691 5691 5690 5689 5687 5686
5631 5634 5636 5638 5640 5643 5645 5647 5649 5651 5653 5655 5657 5658 5660 5662 5664 5665 5667 5668 5669 5671 5672 5673 5674 5675 5676 5677 5678 5678 5679 5679 5680 5680 5680 5680 5680 5680 5680 5679 5678 5677 5676 5674
5624 5626 5629 5631 5633 5635 5637 5639 5641 5643 5645 5647 5649 5650 5652 5653 5655 5656 5657 5659 5660 5661 5662 5663 5665 5665 5666 5667 5667 5668 5668 5669 5669 5669 5669 5669 5669 5668 5668 5667 5666 5665 5663 5662
5616 5618 5621 5623 5625 5627 5629 5632 5634 5636 5637 5639 5640 5642 5643 5645 5646 5647 5648 5650 5651 5652 5653 5654 5655 5655 5656 5657 5657 5657 5657 5658 5658 5657 5657 5657 5657 5656 5655 5655 5653 5652 5651 5649